LiveATC.Net - Listen to live air traffic control over the Internet!


ICAO: KPSF  IATA: PSF   Airport: Pittsfield Municipal Airport
City: Pittsfield   State/Province: Massachusetts
Country: United States   Continent: North America
KPSF METAR Weather: KPSF 190954Z AUTO 14003KT 10SM CLR 02/00 A2997 RMK AO2 SLP152 T00220000
KPSF Flight Activity (FlightAware)
KPSF Airport Info   (iFlightPlanner)
KPSF VFR Sectional Chart   (iFlightPlanner) 
KPSF IFR Low Chart   (iFlightPlanner) 

KPSF CTAF
Feed Status: DOWN
Last heard on: 2019-07-21 23:53:05 (89 days 10 hours 49 minutes ago)
KPSF CTAF Audio Archives
FacilityFrequency
Pittsfield CTAF122.700

NOTICE

Unauthorized use prohibited. See LiveATC.net Terms of Service


Airport/ARTCC Code
Frequency Search
(e.g., 124.400, 128.75)
Site-wide search
 


Browse LiveATC Feeds
Top 50 LiveATC Feeds
LiveATC Feed Map
Bad Weather Areas

LiveATC FAQ
Offer LiveATC feed
Contact LiveATC.net
Press Inquiries

LiveATC on iPhone
LiveATC on Android

Windows Phone
Windows 8/10

LiveATC Mobile
(Mobile browser)

ATC Audio Archives
Interesting Recordings

LiveATC Forums


Home Page
About LiveATC.net
Make a Donation
Terms of Use
Privacy Policy

Canadian Air Freqs

AIRMETs/SIGMETs

FAA Airport Status
Nat'l Airspace Status
Arrival Demand Charts


Server Software By:
Icecast.org
Liquidsoap